Theta_e
305 303 304 303 303 302 301 300 299 298 298 297 297 296 296 295 295 295 293 293 292 291 292 293 292 293 292 292 292 291 289 289 286 288 291 292 293 294 295 296 298 297 297
304 304 302 302 301 300 299 298 297 296 297 296 295 294 294 294 294 293 292 292 291 290 291 290 290 292 290 290 290 289 288 289 286 284 286 288 288 290 292 293 296 296 296
304 302 301 300 298 297 297 296 296 295 295 294 292 291 290 290 289 289 289 289 288 287 287 287 288 288 286 286 287 286 287 288 287 285 284 286 287 288 289 291 292 292 295
303 301 300 299 296 295 295 294 294 294 292 291 290 290 290 289 289 288 288 286 285 285 285 285 286 286 286 286 286 285 285 283 283 283 283 283 284 286 287 286 285 288 289
302 300 300 298 296 296 295 294 293 292 291 290 289 289 289 288 286 284 284 283 283 283 283 284 285 287 290 287 286 283 282 281 280 281 281 282 283 283 284 287 286 286 288
300 299 300 299 297 295 294 293 292 290 289 289 288 288 287 288 284 283 282 280 282 281 280 282 283 286 286 288 288 287 284 280 279 279 279 279 280 282 283 283 282 281 279
298 299 299 296 294 295 294 292 290 288 288 288 288 288 287 285 284 283 282 280 280 280 280 281 282 284 285 285 285 285 285 286 285 281 279 279 279 280 281 280 279 279 279
296 297 297 296 294 294 293 291 290 288 287 287 287 287 285 286 286 285 282 279 279 279 280 280 280 281 282 283 281 280 281 281 282 283 282 281 282 283 282 283 282 283 281
294 295 295 295 293 292 291 290 288 287 287 287 287 285 284 284 286 285 282 279 279 278 280 280 281 280 282 284 281 279 279 280 284 286 286 286 286 286 286 283 280 280 278
294 294 293 293 293 291 291 289 288 287 287 286 285 284 285 283 285 284 282 278 277 278 279 280 281 281 281 281 280 280 278 280 281 281 280 281 283 284 286 285 282 278 277
294 294 293 293 291 291 290 288 287 286 285 284 283 283 283 283 282 283 282 279 277 277 277 277 279 282 281 280 280 278 278 279 279 278 278 279 280 281 282 283 284 283 279
294 293 292 292 291 290 288 286 286 285 284 282 279 281 281 281 283 282 281 280 279 277 276 279 279 281 280 280 279 280 280 279 277 276 277 278 279 280 282 283 284 285 286
292 291 291 290 290 289 286 285 284 284 281 280 280 278 278 279 279 280 279 279 278 277 278 278 279 280 279 279 280 280 279 278 278 277 277 278 280 281 282 282 284 284 285
289 289 289 288 287 287 287 285 283 282 280 280 278 276 276 277 276 276 276 276 277 277 276 277 278 278 277 278 279 279 279 279 277 278 278 279 281 281 281 283 283 282 282
288 288 286 286 286 286 286 283 283 281 280 278 277 276 272 271 274 277 276 276 276 276 275 276 275 274 274 276 276 277 278 277 277 277 278 279 279 280 280 280 282 280 279
285 285 286 285 285 285 284 283 283 281 280 280 278 275 274 277 277 277 277 278 278 277 275 273 272 273 273 274 274 274 275 276 276 277 277 278 278 278 279 280 284 279 276
285 285 285 284 285 283 283 282 280 282 282 281 279 279 278 277 278 278 277 277 278 276 273 273 272 272 272 273 273 274 274 276 276 276 277 277 277 278 279 279 280 279 279
285 282 284 286 284 283 282 282 282 281 279 279 281 279 278 279 279 278 277 276 273 274 273 272 272 272 272 272 273 273 274 274 274 275 276 277 275 277 278 276 278 279 279
285 283 283 284 284 283 283 283 282 282 281 280 279 279 277 278 279 278 278 270 270 271 272 272 272 272 272 272 272 273 273 274 273 273 274 276 277 277 276 277 277 275 276
285 282 280 283 283 283 283 282 281 281 280 280 279 276 274 273 271 273 273 268 268 270 271 272 272 272 272 272 271 272 272 272 273 273 272 274 276 277 277 277 277 276 277
285 284 283 283 283 283 282 282 282 281 280 280 279 274 270 271 272 272 271 269 267 268 269 271 271 271 271 271 271 270 271 271 271 271 271 272 274 275 276 277 276 277 276
282 283 284 283 283 283 282 281 281 281 280 280 279 278 272 271 273 272 273 270 269 268 269 269 271 270 270 270 270 269 269 268 268 269 269 271 273 273 275 276 273 271 275
284 284 283 283 283 283 282 282 282 282 281 280 279 279 278 277 274 272 271 271 273 270 268 269 269 270 269 269 270 270 269 268 268 269 268 269 272 271 272 272 273 270 268
285 284 283 282 283 283 281 282 282 281 281 281 281 280 279 278 273 272 272 274 270 270 269 267 268 270 269 268 268 268 269 268 268 269 268 270 270 271 271 270 268 271 266
283 284 283 283 283 283 282 282 282 282 282 282 281 281 279 279 277 277 275 274 270 269 268 266 267 269 269 268 268 268 267 268 267 267 269 270 268 268 268 270 268 270 266
283 284 281 283 283 283 283 282 281 281 281 281 281 281 280 278 276 277 272 271 269 268 267 267 267 268 269 269 268 269 268 268 267 267 268 269 267 267 267 267 267 268 267
Wind_Speed
6 6 6 5 4 5 4 6 6 7 8 8 8 7 9 9 5 4 7 8 7 8 6 7 8 10 8 8 7 8 7 5 8 6 5 5 4 5 6 7 2 3 7
5 6 7 6 6 7 6 6 6 5 6 7 6 7 7 7 6 7 8 8 9 9 10 10 11 8 9 7 6 9 6 6 5 10 4 4 5 6 5 5 4 4 5
4 5 7 6 7 7 6 5 5 5 6 6 6 7 7 7 8 6 6 6 7 8 10 12 12 10 7 6 6 5 5 6 8 6 5 4 4 4 5 4 5 5 4
8 6 5 3 2 3 4 5 6 6 6 6 6 6 7 7 8 7 8 8 8 9 10 14 14 13 11 9 7 5 5 6 7 8 8 7 5 5 4 4 5 3 4
8 6 6 4 4 4 3 4 5 6 6 6 7 6 7 7 6 6 7 8 9 10 10 13 14 16 21 9 6 5 5 3 4 7 8 8 7 5 4 5 4 3 4
6 8 9 7 6 5 5 5 5 5 5 6 6 6 6 6 8 8 9 7 10 11 12 13 13 18 15 13 8 8 8 6 9 7 8 8 10 9 6 5 4 4 4
10 7 4 8 6 5 5 5 7 5 6 6 6 5 4 4 5 8 8 6 8 10 13 12 12 10 14 10 11 14 7 8 11 7 10 10 10 11 10 8 5 4 3
15 9 3 3 5 8 2 4 7 5 6 6 5 4 4 4 9 8 6 6 7 9 12 13 13 12 10 12 7 7 8 7 7 7 9 11 10 10 7 6 6 6 4
18 10 10 4 7 6 5 6 6 5 6 3 5 6 6 7 11 9 8 5 7 9 11 12 13 12 16 20 10 8 8 9 11 17 18 18 18 18 16 8 7 7 6
15 11 9 9 6 5 5 6 4 5 5 4 3 4 7 7 8 10 10 3 7 8 10 11 17 15 9 11 7 7 8 8 7 7 7 8 10 10 16 11 8 9 7
10 9 10 11 9 6 5 3 4 4 3 4 3 4 6 5 6 11 10 5 6 8 9 10 9 12 10 12 13 6 9 9 8 7 7 7 8 8 7 7 8 8 8
9 9 8 8 8 5 4 4 6 6 6 3 3 5 4 4 10 11 14 17 17 9 10 8 8 16 15 17 12 12 11 8 5 6 7 7 6 7 7 6 6 6 9
10 12 9 8 7 5 5 6 4 4 3 3 5 6 6 6 6 16 18 21 18 10 8 15 21 13 15 11 11 12 9 5 6 3 4 5 4 4 6 5 6 7 7
10 10 9 6 6 5 4 4 4 3 3 3 4 4 5 7 6 7 8 8 11 9 11 10 7 8 9 11 5 6 5 4 4 4 4 5 4 4 5 4 6 6 5
9 9 8 4 5 5 5 4 3 4 3 1 2 2 3 4 6 14 13 8 8 8 11 4 5 6 7 6 6 6 6 5 5 4 5 5 5 5 5 3 5 3 2
5 5 5 4 3 4 3 3 7 6 3 3 3 2 3 7 14 16 17 19 16 14 6 4 5 6 7 6 5 5 5 5 5 5 4 4 5 5 5 6 6 1 2
4 5 5 5 4 3 3 4 5 2 9 6 7 8 7 6 12 14 16 18 12 9 4 5 5 5 6 7 6 5 6 5 6 6 4 5 5 5 6 4 6 4 4
2 5 3 4 3 3 3 4 4 5 4 3 11 9 2 8 14 11 12 11 6 5 4 5 5 5 6 7 7 7 8 5 6 7 6 6 4 6 4 4 4 6 6
5 2 0 3 3 2 3 3 4 4 4 4 2 5 3 12 13 5 7 2 4 5 5 5 4 5 5 6 6 7 8 7 5 6 7 7 6 4 4 4 4 5 5
2 4 2 2 3 3 2 3 3 3 4 4 3 1 2 3 3 2 2 2 2 3 4 6 5 5 5 6 6 6 7 7 7 7 7 8 7 6 5 4 4 4 4
2 2 2 2 3 2 2 3 3 3 3 4 3 3 2 1 2 2 2 2 1 2 2 5 5 4 4 6 6 6 7 6 7 8 7 8 8 6 7 4 5 4 3
1 1 2 3 3 3 2 2 4 4 3 3 2 2 7 3 2 1 1 1 1 1 1 2 4 3 3 5 5 5 5 5 6 7 8 8 8 6 8 6 3 3 4
3 3 2 4 4 3 3 3 4 4 4 2 3 2 2 2 1 2 2 2 1 1 1 1 2 2 2 3 3 4 4 5 6 6 7 8 7 6 6 5 6 4 3
2 3 4 5 5 4 3 4 3 5 5 4 3 3 2 1 2 2 3 2 2 2 1 1 2 2 2 2 2 3 3 4 5 6 8 8 5 6 5 5 3 8 3
5 4 4 5 5 4 4 4 3 4 5 5 3 2 1 2 2 2 2 2 1 2 2 2 1 1 3 5 2 3 4 7 6 7 7 7 6 6 6 5 4 6 4
3 4 3 4 4 4 4 4 2 3 4 4 4 3 3 2 3 2 2 2 3 1 3 2 2 2 4 4 4 5 6 7 6 9 7 3 4 4 4 6 6 5 5
Wind_Direction
20 13 338 327 325 304 323 31 21 9 351 346 335 325 316 311 317 310 280 293 307 300 293 283 289 289 288 302 297 298 285 246 262 280 263 284 310 299 255 252 289 198 183
343 338 325 319 346 345 14 15 1 335 319 325 314 305 284 278 255 252 268 271 269 279 298 296 286 274 279 281 287 276 275 281 275 284 282 296 292 298 298 297 284 256 206
316 299 312 345 359 4 344 344 332 311 295 310 326 316 318 306 299 299 304 328 3 342 327 321 306 279 276 267 271 284 306 322 329 313 295 299 307 317 310 315 295 304 299
278 266 299 9 339 312 306 1 342 329 322 319 319 318 314 323 333 10 353 347 339 332 326 318 311 304 288 284 316 327 318 331 322 317 313 310 309 304 287 285 293 291 281
312 288 285 227 222 254 17 3 329 316 319 333 328 320 317 317 38 17 0 346 332 320 312 302 297 301 306 267 257 267 298 303 310 299 297 305 300 301 296 333 327 332 322
288 261 297 303 269 11 6 331 310 307 330 313 309 311 323 352 76 42 23 339 329 321 308 299 293 295 295 313 281 250 226 234 257 264 274 280 289 301 327 332 334 345 326
300 292 3 38 350 299 283 330 324 325 307 300 298 305 348 41 70 37 4 324 315 317 308 307 308 311 325 320 356 345 331 284 277 279 273 270 276 282 294 300 301 299 283
317 309 316 304 248 252 24 342 293 304 300 295 307 351 351 359 343 348 345 310 316 310 312 312 312 313 317 317 310 292 297 290 267 248 241 253 261 270 275 295 305 303 295
314 0 339 167 272 350 11 329 290 301 297 328 14 4 348 331 314 353 307 311 303 309 302 299 297 303 303 304 300 287 281 277 274 268 271 274 278 273 266 268 263 270 280
352 339 354 321 329 343 333 284 291 304 338 56 23 335 324 315 341 345 339 313 310 313 311 307 304 312 12 358 337 301 287 279 287 298 299 299 290 263 258 248 243 241 251
357 355 345 324 324 293 280 305 321 325 328 71 25 316 308 314 23 342 339 332 328 321 313 308 302 328 321 315 307 278 272 292 295 292 283 279 275 270 261 257 228 224 235
341 328 309 291 290 315 325 354 326 319 44 26 345 333 333 14 3 5 3 346 338 323 311 309 331 327 328 319 310 289 292 287 271 266 265 261 260 261 260 261 251 231 226
324 315 309 323 325 9 339 309 312 34 46 12 8 337 343 354 344 13 351 346 335 322 320 318 316 344 333 319 308 303 283 267 260 280 297 281 275 289 300 279 255 247 251
328 327 311 324 342 319 314 338 27 37 36 28 345 341 339 338 341 350 340 331 330 329 326 311 343 347 325 317 359 344 329 350 327 296 316 299 285 280 278 263 269 249 245
330 329 316 324 335 338 337 23 44 75 81 16 348 354 341 330 334 334 335 334 330 331 318 339 354 348 332 350 357 353 354 353 351 336 316 316 315 317 306 298 297 268 241
321 313 327 312 322 307 345 357 89 92 170 183 184 220 294 316 337 341 338 338 336 337 331 356 347 341 346 343 358 348 338 346 339 324 319 332 326 326 320 316 333 272 272
286 304 307 322 339 346 13 13 341 293 233 217 220 249 282 311 329 340 343 340 349 353 348 343 346 350 344 351 356 347 339 353 342 337 333 332 336 326 319 339 346 345 325
194 289 314 326 346 349 356 321 303 306 307 301 220 235 236 330 346 332 338 354 349 1 346 337 350 351 352 350 349 346 338 357 356 348 348 343 330 322 346 346 352 342 337
246 209 183 307 294 310 286 288 292 300 307 310 327 150 181 10 341 324 344 27 340 341 350 345 346 351 352 347 344 345 343 354 358 350 347 336 338 343 343 345 341 339 336
281 137 218 291 286 282 300 302 302 297 307 310 312 53 34 4 332 331 342 23 351 340 345 341 344 351 353 349 346 347 346 356 359 353 347 344 340 346 342 342 347 343 349
15 47 221 277 270 295 276 292 298 294 297 304 312 124 163 271 280 302 325 10 4 338 337 336 333 348 358 348 351 347 348 356 357 350 342 340 340 348 341 344 352 353 356
7 318 311 283 276 252 268 297 282 269 271 288 297 179 203 236 240 300 321 7 297 284 302 324 328 345 358 344 340 343 346 357 348 340 335 333 334 348 340 338 346 342 351
259 248 255 272 274 239 245 264 276 282 278 265 274 264 262 258 220 216 259 248 262 274 261 310 309 318 338 325 328 343 348 352 335 325 328 323 324 344 337 336 357 343 355
247 249 264 270 270 245 236 262 269 279 273 264 263 266 259 252 254 242 227 233 216 257 203 148 284 307 314 309 326 338 352 331 328 325 323 316 327 336 340 334 350 331 340
226 237 254 260 263 261 251 251 258 278 282 288 276 280 265 258 263 249 232 215 205 251 235 194 246 284 308 309 322 358 337 339 329 326 322 319 347 345 348 335 353 332 349
197 222 261 274 267 263 259 258 258 276 285 292 287 280 271 244 237 249 226 216 222 207 294 198 221 283 305 291 44 9 349 339 337 326 323 323 339 332 347 342 347 350 354